TCV449 GVAC-GOBD

Flight info

Callsign TCV449
Flight time N/A
Altitude 19000
Route IRPOT1A POLMO DCT LUMPO DCT LIGOV LIGOV1A
Aircraft AT76/M-SDFGIRY/S

Departure

Time 2026-04-22 22:04
Airport Amílcar Cabral International Airport (GVAC)

Arrival

Time N/A
Airport Blaise Diagne International Airport (GOBD)
Time Latitude Longitude Altitude Speed Heading
2026-04-22 21:49 16.73171 -22.94490 197 ft 0 kts 89°
2026-04-22 21:54 16.73171 -22.94501 207 ft 6 kts 90°
2026-04-22 21:54 16.73172 -22.94570 197 ft 0 kts 92°
2026-04-22 21:54 16.73172 -22.94569 197 ft 0 kts 92°
2026-04-22 21:54 16.73172 -22.94568 197 ft 0 kts 90°
2026-04-22 21:55 16.73172 -22.94571 197 ft 0 kts 93°
2026-04-22 21:55 16.73172 -22.94570 197 ft 0 kts 95°
2026-04-22 21:55 16.73171 -22.94562 197 ft 3 kts 102°
2026-04-22 21:55 16.73167 -22.94553 207 ft 1 kts 118°
2026-04-22 21:56 16.73167 -22.94554 207 ft 0 kts 131°
2026-04-22 21:56 16.73163 -22.94552 206 ft 0 kts 153°
2026-04-22 21:56 16.73138 -22.94556 197 ft 1 kts 207°
2026-04-22 21:57 16.73139 -22.94555 197 ft 1 kts 211°
2026-04-22 21:57 16.73098 -22.94578 200 ft 13 kts 214°
2026-04-22 21:57 16.73053 -22.94639 199 ft 0 kts 238°
2026-04-22 21:57 16.73051 -22.94644 202 ft 8 kts 249°
2026-04-22 21:58 16.73039 -22.94670 199 ft 4 kts 245°
2026-04-22 21:58 16.73009 -22.94690 196 ft 7 kts 181°
2026-04-22 21:58 16.72935 -22.94690 188 ft 8 kts 179°
2026-04-22 21:58 16.72852 -22.94690 191 ft 17 kts 178°
2026-04-22 21:59 16.72740 -22.94688 185 ft 6 kts 180°
2026-04-22 21:59 16.72646 -22.94688 182 ft 17 kts 179°
2026-04-22 21:59 16.72569 -22.94687 180 ft 4 kts 180°
2026-04-22 22:01 16.72566 -22.94687 180 ft 0 kts 180°
2026-04-22 22:01 16.72542 -22.94687 180 ft 13 kts 180°
2026-04-22 22:02 16.72476 -22.94687 179 ft 0 kts 180°
2026-04-22 22:02 16.72453 -22.94687 179 ft 9 kts 180°
2026-04-22 22:02 16.72402 -22.94740 180 ft 14 kts 264°
2026-04-22 22:03 16.72404 -22.94805 181 ft 9 kts 271°
2026-04-22 22:03 16.72411 -22.94856 182 ft 6 kts 293°
2026-04-22 22:03 16.72444 -22.94884 183 ft 5 kts 343°
2026-04-22 22:03 16.72526 -22.94887 193 ft 40 kts 359°
2026-04-22 22:04 16.73050 -22.94894 189 ft 109 kts
2026-04-22 22:04 16.73953 -22.94918 381 ft 142 kts
2026-04-22 22:04 16.74993 -22.94969 783 ft 157 kts 357°
2026-04-22 22:04 16.76101 -22.95029 1429 ft 157 kts 355°
2026-04-22 22:05 16.77220 -22.95038 1894 ft 172 kts
2026-04-22 22:05 16.78021 -22.94929 2186 ft 172 kts 11°
2026-04-22 22:05 16.79280 -22.94724 2271 ft 197 kts 11°
2026-04-22 22:05 16.80721 -22.94381 2052 ft 223 kts 16°
2026-04-22 22:06 16.82141 -22.94013 2675 ft 211 kts 12°
2026-04-22 22:06 16.83628 -22.93779 2846 ft 219 kts
2026-04-22 22:06 16.85127 -22.93444 3079 ft 227 kts
2026-04-22 22:06 16.86753 -22.93112 2941 ft 246 kts 12°
2026-04-22 22:07 16.88466 -22.92929 3070 ft 243 kts
2026-04-22 22:07 16.89967 -22.92526 4102 ft 214 kts 30°
2026-04-22 22:07 16.90829 -22.91337 5110 ft 206 kts 71°
2026-04-22 22:07 16.90800 -22.89900 5990 ft 197 kts 115°
2026-04-22 22:08 16.90159 -22.88680 6811 ft 189 kts 124°
2026-04-22 22:08 16.89570 -22.87482 7563 ft 186 kts 123°
2026-04-22 22:08 16.89004 -22.86266 8314 ft 186 kts 121°
2026-04-22 22:08 16.88488 -22.85017 9075 ft 185 kts 119°
2026-04-22 22:09 16.88054 -22.83771 9828 ft 185 kts 114°
2026-04-22 22:09 16.87715 -22.82466 10497 ft 186 kts 109°
2026-04-22 22:09 16.87447 -22.81147 11143 ft 186 kts 106°
2026-04-22 22:09 16.87255 -22.79807 11777 ft 188 kts 101°
2026-04-22 22:10 16.87144 -22.78444 12404 ft 189 kts 96°
2026-04-22 22:10 16.87108 -22.77062 13025 ft 192 kts 93°
2026-04-22 22:10 16.86981 -22.75680 13538 ft 191 kts 118°
2026-04-22 22:10 16.86328 -22.74487 14102 ft 190 kts 129°
2026-04-22 22:11 16.85583 -22.73345 14647 ft 191 kts 132°
2026-04-22 22:11 16.84799 -22.72219 15189 ft 192 kts 133°
2026-04-22 22:11 16.83992 -22.71079 15682 ft 197 kts 133°
2026-04-22 22:11 16.83179 -22.69912 16196 ft 200 kts 133°
2026-04-22 22:12 16.82362 -22.68730 16724 ft 202 kts 133°
2026-04-22 22:12 16.81542 -22.67528 17250 ft 204 kts 133°
2026-04-22 22:12 16.80709 -22.66298 17694 ft 211 kts 133°
2026-04-22 22:12 16.79866 -22.65053 18094 ft 214 kts 133°
2026-04-22 22:13 16.78996 -22.63762 18358 ft 215 kts 133°
2026-04-22 22:13 16.78144 -22.62495 18587 ft 217 kts 132°
2026-04-22 22:13 16.77275 -22.61204 18815 ft 218 kts 133°
2026-04-22 22:13 16.76398 -22.59905 19043 ft 219 kts 133°
2026-04-22 22:14 16.75516 -22.58603 19273 ft 220 kts 133°
2026-04-22 22:14 16.74628 -22.57292 19500 ft 222 kts 133°
2026-04-22 22:14 16.73734 -22.55975 19710 ft 224 kts 133°
2026-04-22 22:14 16.72818 -22.54632 19886 ft 228 kts 133°
2026-04-22 22:15 16.71899 -22.53277 20108 ft 230 kts 133°
2026-04-22 22:15 16.70975 -22.51909 20333 ft 231 kts 133°
2026-04-22 22:15 16.70048 -22.50536 20550 ft 232 kts 133°
2026-04-22 22:15 16.69114 -22.49153 20769 ft 234 kts 133°
2026-04-22 22:16 16.68173 -22.47764 20986 ft 235 kts 133°
2026-04-22 22:16 16.67227 -22.46368 21203 ft 236 kts 133°
2026-04-22 22:16 16.66276 -22.44968 21413 ft 237 kts 133°
2026-04-22 22:16 16.65322 -22.43561 21631 ft 238 kts 133°
2026-04-22 22:17 16.64361 -22.42146 21839 ft 240 kts 133°
2026-04-22 22:17 16.63409 -22.40742 22043 ft 241 kts 134°
2026-04-22 22:17 16.62423 -22.39291 22175 ft 246 kts 134°
2026-04-22 22:17 16.61433 -22.37842 22319 ft 250 kts 133°
2026-04-22 22:18 16.60427 -22.36359 22505 ft 251 kts 133°
2026-04-22 22:18 16.59419 -22.34866 22693 ft 252 kts 133°
2026-04-22 22:18 16.58410 -22.33368 22883 ft 252 kts 133°
2026-04-22 22:18 16.57629 -22.32080 24176 ft 164 kts 129°
2026-04-22 22:19 16.57060 -22.30966 23432 ft 209 kts 132°
2026-04-22 22:19 16.56066 -22.29548 22823 ft 251 kts 136°
2026-04-22 22:19 16.54995 -22.28097 23000 ft 252 kts 148°
2026-04-22 22:19 16.54209 -22.26447 22981 ft 259 kts 131°
2026-04-22 22:20 16.53717 -22.24602 22745 ft 273 kts 102°
2026-04-22 22:20 16.53207 -22.22740 22966 ft 260 kts 125°
2026-04-22 22:20 16.52290 -22.21136 23172 ft 257 kts 129°
2026-04-22 22:20 16.51354 -22.19543 23361 ft 259 kts 128°
2026-04-22 22:21 16.50481 -22.17887 23515 ft 262 kts 123°
2026-04-22 22:21 16.49710 -22.16167 23706 ft 262 kts 120°
2026-04-22 22:21 16.48985 -22.14417 23826 ft 264 kts 119°
2026-04-22 22:21 16.48252 -22.12650 23861 ft 270 kts 120°
2026-04-22 22:22 16.47484 -22.10841 23871 ft 276 kts 120°
2026-04-22 22:22 16.46693 -22.09001 23885 ft 281 kts 120°
2026-04-22 22:22 16.45895 -22.07140 23883 ft 286 kts 120°
2026-04-22 22:22 16.45077 -22.05238 23904 ft 290 kts 120°
2026-04-22 22:23 16.44250 -22.03311 23921 ft 293 kts 120°
2026-04-22 22:23 16.43414 -22.01370 23946 ft 295 kts 120°
2026-04-22 22:23 16.42573 -21.99410 23953 ft 297 kts 120°
2026-04-22 22:23 16.41724 -21.97439 23965 ft 299 kts 120°
2026-04-22 22:24 16.40873 -21.95459 23978 ft 301 kts 119°
2026-04-22 22:24 16.40016 -21.93469 23987 ft 302 kts 119°
2026-04-22 22:24 16.39151 -21.91466 23998 ft 303 kts 119°
2026-04-22 22:24 16.38287 -21.89459 24008 ft 304 kts 119°
2026-04-22 22:25 16.37420 -21.87450 24019 ft 305 kts 119°
2026-04-22 22:25 16.36550 -21.85430 24031 ft 305 kts 119°
2026-04-22 22:25 16.35679 -21.83413 24035 ft 306 kts 119°
2026-04-22 22:25 16.34805 -21.81392 24042 ft 307 kts 119°
2026-04-22 22:26 16.33931 -21.79364 24050 ft 307 kts 119°
2026-04-22 22:26 16.33054 -21.77334 24053 ft 307 kts 119°
2026-04-22 22:26 16.32186 -21.75324 24057 ft 308 kts 119°
2026-04-22 22:26 16.31307 -21.73289 24060 ft 308 kts 119°
2026-04-22 22:27 16.30426 -21.71256 24061 ft 308 kts 119°
2026-04-22 22:27 16.29542 -21.69223 24061 ft 309 kts 119°
2026-04-22 22:27 16.28658 -21.67184 24063 ft 309 kts 119°
2026-04-22 22:27 16.27772 -21.65146 24064 ft 309 kts 120°
2026-04-22 22:28 16.26911 -21.63092 24068 ft 311 kts 115°
2026-04-22 22:28 16.26218 -21.60963 24070 ft 312 kts 111°
2026-04-22 22:28 16.25570 -21.58802 24072 ft 312 kts 111°
2026-04-22 22:28 16.24902 -21.56657 24073 ft 311 kts 113°
2026-04-22 22:29 16.24185 -21.54531 24061 ft 311 kts 113°
2026-04-22 22:29 16.23471 -21.52433 24061 ft 311 kts 113°
2026-04-22 22:29 16.22754 -21.50313 24064 ft 311 kts 113°
2026-04-22 22:29 16.22038 -21.48190 24066 ft 311 kts 113°
2026-04-22 22:30 16.21318 -21.46072 24064 ft 311 kts 113°
2026-04-22 22:30 16.20599 -21.43950 24064 ft 311 kts 113°
2026-04-22 22:30 16.19882 -21.41829 24064 ft 311 kts 113°
2026-04-22 22:30 16.19163 -21.39710 24064 ft 311 kts 113°
2026-04-22 22:31 16.18443 -21.37587 24064 ft 311 kts 113°
2026-04-22 22:31 16.17723 -21.35467 24063 ft 311 kts 113°
2026-04-22 22:31 16.17002 -21.33347 24064 ft 311 kts 113°
2026-04-22 22:31 16.16280 -21.31221 24066 ft 311 kts 113°
2026-04-22 22:32 16.15561 -21.29102 24068 ft 311 kts 113°
2026-04-22 22:32 16.14838 -21.26979 24069 ft 311 kts 113°
2026-04-22 22:32 16.14117 -21.24860 24071 ft 311 kts 113°
2026-04-22 22:32 16.13394 -21.22734 24072 ft 311 kts 113°
2026-04-22 22:33 16.12673 -21.20614 24073 ft 311 kts 113°
2026-04-22 22:33 16.11958 -21.18513 24072 ft 311 kts 113°
2026-04-22 22:33 16.11237 -21.16393 24072 ft 311 kts 113°
2026-04-22 22:33 16.10513 -21.14271 24073 ft 311 kts 113°
2026-04-22 22:34 16.09787 -21.12143 24073 ft 311 kts 113°
2026-04-22 22:34 16.09064 -21.10020 24072 ft 311 kts 113°
2026-04-22 22:34 16.08351 -21.07927 24073 ft 311 kts 113°
2026-04-22 22:34 16.07618 -21.05780 24074 ft 311 kts 113°
2026-04-22 22:35 16.06895 -21.03661 24075 ft 311 kts 113°
2026-04-22 22:35 16.06178 -21.01565 24075 ft 311 kts 113°
2026-04-22 22:35 16.05455 -20.99447 24070 ft 311 kts 113°
2026-04-22 22:35 16.04732 -20.97329 24071 ft 311 kts 113°
2026-04-22 22:36 16.04010 -20.95214 24071 ft 307 kts 113°
2026-04-22 22:36 16.03289 -20.93116 24069 ft 308 kts 113°
2026-04-22 22:36 16.02570 -20.91016 24068 ft 309 kts 113°
2026-04-22 22:36 16.01851 -20.88911 24068 ft 309 kts 113°
2026-04-22 22:37 16.01130 -20.86800 24068 ft 310 kts 113°
2026-04-22 22:37 16.00407 -20.84692 24068 ft 310 kts 113°
2026-04-22 22:37 15.99683 -20.82576 24069 ft 310 kts 113°
2026-04-22 22:37 15.98959 -20.80469 24054 ft 310 kts 112°
2026-04-22 22:38 15.98234 -20.78350 24055 ft 310 kts 112°
2026-04-22 22:38 15.97514 -20.76238 24054 ft 310 kts 112°
2026-04-22 22:38 15.96802 -20.74159 24054 ft 310 kts 112°
2026-04-22 22:38 15.96078 -20.72050 24051 ft 310 kts 112°
2026-04-22 22:39 15.95367 -20.69977 23990 ft 297 kts 112°
2026-04-22 22:39 15.94675 -20.67968 23980 ft 296 kts 112°
2026-04-22 22:39 15.94367 -20.67073 23982 ft 297 kts 112°